Theta_e
283 284 284 283 283 284 283 283 283 283 283 283 284 283 284 284 284 284 284 285 285 285 285 285 286 287 289 289 286 288 288 288 287 289 282 282 284 285 285 288 286 286 289
282 283 282 283 282 283 284 283 282 282 282 281 281 281 282 283 283 283 282 283 283 284 285 285 286 288 285 287 288 286 287 289 286 287 282 280 282 285 285 286 284 285 285
282 281 280 280 280 280 281 281 282 281 281 281 280 280 280 280 281 282 283 282 282 282 283 283 284 284 285 286 286 286 287 288 288 286 287 279 281 282 281 283 283 283 282
281 281 279 279 279 280 280 279 279 280 279 279 279 279 280 280 280 281 281 281 282 282 283 283 283 283 284 284 285 285 285 285 285 285 285 278 278 280 283 281 279 280 280
279 279 279 279 280 280 279 279 279 278 279 279 278 278 278 279 279 280 280 281 281 281 282 283 283 284 286 287 285 285 285 284 284 284 284 279 279 278 280 281 281 280 280
278 279 280 280 280 279 279 279 279 279 278 278 278 277 276 277 281 282 282 279 281 281 280 281 282 283 284 287 289 290 289 286 283 284 284 283 282 281 281 281 281 278 275
278 278 278 278 278 278 278 278 277 277 277 277 276 276 276 276 280 281 281 279 278 279 279 279 280 282 283 283 286 288 289 291 291 286 284 284 284 283 281 281 280 281 281
275 275 276 276 275 276 275 275 274 275 274 274 274 275 274 275 279 280 280 277 276 277 277 278 278 279 281 282 282 282 283 284 286 288 288 287 287 286 283 283 282 282 281
275 274 274 272 271 271 270 270 270 270 270 270 271 271 271 271 276 276 276 274 274 274 275 275 276 277 280 283 282 281 282 283 287 289 290 291 292 291 286 282 281 279 278
272 272 271 270 267 267 267 266 266 266 267 267 267 267 267 267 271 273 273 271 270 271 272 273 276 275 279 281 280 280 280 281 283 284 284 288 290 289 290 284 283 279 280
269 269 268 267 265 264 264 264 263 263 264 263 263 264 264 265 266 270 272 270 269 269 270 271 273 277 278 280 282 281 282 283 284 284 283 283 284 285 287 287 284 283 281
267 265 263 262 262 263 261 261 261 261 260 260 261 261 263 265 267 269 271 272 272 269 269 271 272 276 278 280 280 283 286 286 283 283 282 282 282 283 285 286 285 284 284
259 259 260 261 261 261 260 260 260 260 260 260 261 260 261 264 264 268 270 271 271 268 269 270 273 274 276 277 280 283 283 283 282 282 282 281 282 283 284 284 284 283 280
254 258 260 260 260 260 261 261 260 259 259 260 260 260 261 263 264 265 265 265 268 268 269 268 270 272 275 275 275 280 281 282 282 283 283 282 283 282 282 282 280 279 278
258 260 260 260 259 260 260 260 261 262 263 262 264 265 265 265 267 271 272 271 271 271 269 267 267 269 270 271 272 277 278 279 280 282 283 281 281 280 280 280 280 278 277
258 259 259 259 260 260 259 259 265 267 268 269 271 270 268 272 273 274 274 275 275 276 271 269 268 268 269 270 271 273 277 277 279 282 282 281 279 278 278 278 278 276 274
257 259 259 260 259 259 259 258 258 262 267 268 269 271 272 272 274 274 275 275 276 276 270 268 267 268 269 270 271 273 275 278 280 282 281 279 278 278 277 275 274 275 272
257 259 259 259 259 259 259 259 259 259 259 261 266 269 271 271 273 274 275 275 270 271 270 268 267 268 269 269 270 271 275 277 279 280 280 279 278 276 274 274 274 274 272
257 258 258 259 259 259 259 259 260 260 260 261 262 265 266 268 271 270 270 265 265 266 267 269 269 268 268 270 271 273 276 277 277 277 276 276 275 274 274 273 273 273 271
257 258 259 258 258 258 258 259 259 259 260 260 260 260 261 265 260 261 262 263 263 264 264 269 270 271 271 271 272 275 277 275 275 275 274 274 274 274 273 271 271 270 270
258 258 257 257 257 257 258 258 259 259 259 259 260 261 268 261 260 260 260 261 262 263 264 266 268 270 272 274 274 274 274 273 273 272 272 271 272 271 271 271 270 270 269
255 255 256 255 256 256 257 258 259 259 259 259 259 261 266 260 260 260 260 260 261 262 263 264 266 267 267 268 270 270 270 270 270 270 270 270 270 270 270 269 268 268 268
254 255 255 254 255 256 256 256 257 258 259 259 259 259 260 260 260 260 260 260 261 261 262 262 262 264 265 266 267 268 267 267 268 269 269 268 268 268 268 267 267 266 266
251 251 251 252 254 254 254 255 256 257 258 258 258 258 258 259 259 259 260 260 261 261 261 261 261 261 262 264 266 267 267 268 268 268 268 267 267 267 266 266 266 265 265
247 248 248 249 250 252 252 253 254 254 255 256 256 257 257 258 258 259 259 260 260 260 260 261 261 263 263 263 264 265 266 266 267 267 267 267 266 266 265 265 265 265 265
248 248 247 248 249 249 250 252 252 253 253 255 255 255 256 256 257 257 258 259 259 260 260 260 260 261 263 265 267 267 267 267 265 266 266 265 265 264 264 264 264 264 263
Wind_Speed
6 6 6 6 6 6 6 6 6 6 5 6 7 7 7 8 8 7 7 7 6 7 7 7 10 8 9 8 5 9 10 10 16 12 4 6 8 11 10 12 11 13 12
1 1 2 4 4 5 6 7 7 8 9 10 10 7 6 6 7 7 8 7 6 8 8 8 11 8 9 10 10 11 11 12 11 18 6 5 9 13 13 14 11 11 11
3 3 3 5 5 5 6 6 7 7 9 9 9 11 12 11 8 8 8 8 8 8 9 9 11 8 10 9 10 10 11 10 12 11 13 4 6 4 4 7 10 11 8
2 3 4 5 6 6 7 7 8 9 10 8 10 11 10 11 12 12 11 9 9 9 10 10 11 9 11 11 11 12 11 11 11 11 12 5 4 4 8 9 7 8 10
3 4 5 5 5 5 6 7 7 7 8 9 10 10 10 11 10 10 10 11 12 12 11 12 12 12 18 17 10 12 11 11 11 13 13 6 7 4 13 8 11 8 9
5 6 7 10 11 12 12 12 13 13 13 12 13 13 14 10 20 24 21 13 15 14 15 15 13 14 16 24 26 28 21 14 15 13 14 16 17 12 8 11 11 8 7
6 8 11 11 13 13 13 13 15 15 14 16 16 16 17 16 27 29 28 15 16 17 17 16 16 13 15 15 21 26 26 29 30 18 19 20 17 13 10 13 15 13 12
5 6 7 9 10 12 13 15 17 16 17 17 19 19 19 18 31 31 31 19 17 18 18 18 19 20 19 18 16 16 17 17 20 17 22 22 19 12 16 17 17 17 6
7 8 5 5 9 13 15 17 16 17 18 18 18 20 20 21 31 34 31 19 18 21 19 19 20 22 28 32 21 19 19 18 19 29 31 31 28 27 18 10 13 11 11
8 7 9 11 10 12 14 16 15 15 18 16 19 18 21 22 28 33 29 15 19 16 19 21 30 27 36 36 23 20 20 21 16 17 15 25 28 23 29 19 14 16 13
6 9 10 10 12 13 14 13 15 15 16 17 18 16 18 18 19 30 29 17 14 15 15 15 15 31 35 36 36 22 24 21 19 18 15 14 14 15 14 16 19 16 16
8 9 11 12 10 10 13 13 14 14 16 16 17 15 12 14 21 24 29 29 27 18 17 15 17 32 36 38 32 34 34 31 15 13 13 13 13 13 13 14 16 16 14
4 8 10 11 10 10 12 13 12 13 12 13 13 13 13 13 13 28 31 31 31 21 15 23 36 38 38 31 35 38 32 16 13 14 14 14 13 12 12 11 11 13 5
6 8 9 10 11 10 9 10 11 12 11 12 13 14 14 14 13 12 12 15 26 23 25 20 22 28 32 29 22 23 17 13 12 13 13 11 10 10 11 9 10 9 7
7 9 10 9 9 11 11 11 11 13 15 14 13 14 15 15 14 27 25 16 14 16 18 14 13 12 11 12 13 13 7 9 12 14 12 10 10 10 10 9 9 8 10
9 8 8 9 8 10 11 12 23 26 30 31 33 26 15 29 35 35 34 34 34 33 15 13 13 12 12 12 12 12 9 13 13 14 12 10 10 11 11 8 8 10 9
9 11 9 10 9 10 11 11 13 20 30 29 29 30 32 32 34 33 32 32 33 29 12 12 12 12 11 11 12 11 13 10 12 11 11 10 10 11 13 10 10 11 10
8 13 9 8 8 10 11 11 11 12 14 18 23 27 28 32 33 32 31 28 13 14 12 13 12 11 10 11 11 11 13 8 8 8 8 9 10 11 12 12 12 13 10
8 8 8 9 8 11 11 11 10 11 12 13 14 19 18 31 30 27 25 9 11 12 11 13 11 11 11 11 12 12 13 9 9 7 7 9 10 11 11 11 11 14 12
6 11 10 8 8 10 9 10 10 11 12 12 12 12 15 14 12 13 11 11 10 11 11 11 10 10 11 11 11 11 10 6 5 5 6 7 7 9 9 10 10 11 11
6 6 10 7 7 8 9 9 9 10 10 11 11 12 27 11 11 11 11 11 11 12 12 11 9 9 7 2 2 2 3 3 4 5 6 6 7 7 7 8 9 9 9
3 5 6 6 7 8 8 7 8 9 10 11 11 12 25 9 10 10 10 11 11 10 10 11 9 9 9 8 7 6 6 5 5 6 6 7 7 8 8 8 9 9 10
4 5 5 5 6 9 7 6 7 8 10 10 10 10 11 11 11 11 11 11 11 11 11 10 11 10 9 9 8 7 6 6 5 5 7 7 7 7 7 8 9 9 9
3 4 4 4 5 6 5 7 7 10 10 9 10 10 10 10 11 12 11 11 11 10 10 10 10 13 11 9 8 7 7 6 6 7 9 8 8 8 8 8 8 10 9
2 3 3 3 5 5 6 5 6 6 7 7 8 9 9 10 10 11 11 10 10 10 11 10 10 12 14 14 13 14 13 14 11 10 8 10 11 11 9 8 9 9 10
2 3 2 3 4 3 4 5 5 6 6 7 7 7 8 8 9 9 9 10 10 10 12 9 12 16 15 10 11 12 13 14 12 13 8 8 9 8 8 10 12 8 9
Wind_Direction
28 19 6 356 355 349 351 349 350 334 326 322 318 323 331 328 331 331 316 301 291 280 269 254 251 243 251 249 228 243 247 245 257 255 219 204 201 202 201 201 192 196 206
75 40 327 302 320 321 330 325 333 326 320 322 325 308 285 290 301 308 306 297 277 283 278 266 261 252 243 250 254 246 245 249 247 258 231 214 205 205 203 196 197 201 203
199 216 270 279 276 285 284 285 287 291 283 292 303 307 312 310 294 272 269 277 285 279 271 264 263 252 257 254 248 248 253 250 250 251 252 207 216 196 171 208 201 202 200
244 279 275 270 260 247 246 244 244 242 243 259 265 269 275 280 285 283 290 277 263 261 261 265 266 254 254 255 249 251 249 250 245 246 246 194 198 198 197 199 203 206 205
255 248 257 258 264 281 285 289 276 261 266 252 260 251 252 258 264 271 273 272 270 270 263 253 253 252 254 252 253 252 244 241 244 248 247 222 210 178 203 186 211 208 220
335 322 325 329 326 322 317 313 311 309 306 298 294 293 291 280 283 288 291 288 281 275 277 276 266 254 251 255 255 255 247 242 240 238 244 242 231 219 194 197 195 189 219
334 329 324 320 312 309 306 305 305 306 303 296 292 291 290 288 293 295 295 293 288 280 276 276 275 267 258 253 255 256 255 250 245 243 242 240 245 215 190 199 204 207 217
325 304 299 301 302 315 315 311 309 306 302 300 298 298 296 291 295 297 298 295 288 281 279 280 275 271 264 260 259 255 250 246 242 239 245 247 240 233 203 202 201 216 223
312 302 312 336 316 311 305 305 304 303 299 297 293 294 294 294 301 301 302 298 287 282 280 276 273 272 269 268 261 254 252 251 250 246 243 246 250 235 208 194 211 196 217
305 319 316 312 305 302 300 300 297 295 292 295 294 295 294 294 300 300 300 289 284 282 279 275 272 268 269 266 260 253 251 249 244 244 245 243 238 245 234 206 202 208 214
318 307 305 306 301 295 294 295 294 292 289 290 289 290 289 288 291 294 295 289 284 282 278 276 271 272 273 270 263 250 246 252 252 249 243 239 232 228 231 220 214 213 214
306 307 301 295 292 293 289 289 288 287 285 287 289 289 284 285 284 289 292 291 289 287 287 287 284 281 276 275 268 260 255 251 246 237 235 233 225 223 220 220 221 227 224
287 284 284 288 289 287 290 292 292 287 286 288 289 289 288 283 277 280 282 284 283 280 275 275 281 278 286 288 275 265 255 247 242 237 229 226 226 228 222 214 217 219 186
269 285 291 294 296 292 291 290 289 287 289 287 285 281 280 278 272 267 260 260 264 267 268 270 267 270 266 278 289 270 244 242 238 243 235 223 219 209 214 199 191 184 192
296 299 299 295 296 300 293 290 284 282 283 284 285 289 294 292 289 288 294 292 283 265 254 249 253 260 272 278 278 268 248 236 243 243 234 210 205 197 200 183 187 185 196
302 304 301 297 302 300 297 294 293 297 299 298 299 299 295 294 299 298 295 294 291 287 273 269 267 262 260 268 268 276 259 243 238 234 224 205 196 194 191 184 174 177 174
284 297 298 299 303 300 296 297 300 307 304 304 307 308 307 301 299 298 300 298 294 292 271 265 259 257 254 254 265 272 260 246 235 230 217 201 192 189 183 174 168 172 170
278 289 290 294 301 297 294 295 296 302 308 312 316 313 318 319 317 311 309 309 299 292 276 260 256 253 248 244 251 258 268 239 225 228 206 189 186 173 175 179 178 179 168
292 298 297 297 302 299 298 298 299 304 307 305 311 318 322 317 321 330 327 316 310 305 298 276 254 247 245 245 246 250 252 237 223 207 184 175 173 174 182 175 173 170 159
285 287 302 302 306 303 303 305 314 315 316 317 319 321 316 328 335 331 331 327 323 319 313 302 263 252 239 233 244 250 243 201 189 172 167 163 162 168 163 158 158 153 159
288 310 301 301 307 301 304 311 316 319 321 320 320 323 335 348 326 328 330 333 334 332 332 337 337 350 6 290 231 123 119 129 131 130 131 128 133 133 137 142 141 141 138
285 295 301 306 310 307 306 308 321 323 324 325 327 331 345 341 338 338 338 339 340 340 341 344 350 1 8 15 19 32 53 63 83 101 106 111 114 120 125 128 129 132 137
275 297 299 311 313 308 312 317 329 331 329 332 335 338 345 346 346 348 346 347 348 351 352 358 1 4 10 14 20 29 47 45 48 87 101 101 105 111 119 122 128 129 131
293 293 293 316 314 310 314 328 334 336 336 339 340 343 346 346 348 348 350 350 355 357 1 4 9 15 11 16 20 30 40 44 53 67 86 98 99 101 104 106 110 117 115
323 305 327 313 306 309 313 319 331 332 333 339 342 343 343 347 351 352 351 353 355 359 2 4 9 13 23 29 35 40 45 53 59 67 76 87 93 96 100 103 107 101 102
311 312 328 311 303 309 317 323 320 322 324 331 331 331 336 341 343 345 347 352 355 359 1 4 4 7 9 22 47 55 61 64 62 66 74 83 90 92 95 96 97 101 106